Lapse_Rate
5.8 5.4 5.1 5.0 4.7 5.2 5.1 5.4 5.2 5.2 5.7 5.3 5.2 5.2 5.2 5.2 5.1 5.1 4.9 4.9 4.9 5.1
5.7 5.6 5.1 4.7 4.8 5.2 5.3 5.4 5.1 5.4 5.4 5.5 5.4 5.3 5.3 5.3 5.3 5.2 5.2 5.5 5.2 4.9
5.8 5.5 5.5 5.0 4.9 5.0 5.1 5.4 5.4 5.5 5.6 5.6 5.6 5.5 5.6 5.4 5.4 5.3 5.1 5.2 5.1 5.0
5.9 6.1 5.7 5.4 5.1 5.1 5.2 5.6 5.6 5.5 5.6 5.5 5.5 5.6 5.7 5.8 5.6 5.6 5.5 5.6 5.4 5.3
6.0 5.8 5.7 5.7 5.5 5.8 5.7 5.4 5.6 5.6 5.8 5.3 5.3 5.2 5.3 5.7 5.8 5.7 5.7 5.5 5.5 5.5
5.3 5.6 6.0 6.0 5.8 6.0 6.0 6.0 5.5 5.6 5.6 5.6 5.6 5.7 5.3 5.2 5.2 5.4 5.6 5.3 5.5 5.6
4.7 5.0 5.1 5.7 5.8 5.9 6.0 6.1 5.8 5.6 5.5 5.2 5.2 4.9 4.9 5.1 5.1 5.3 5.3 5.5 5.3 5.7
4.5 4.4 4.5 4.8 4.8 5.2 5.3 5.4 5.4 5.3 5.1 5.1 5.0 4.8 4.7 4.9 4.9 4.8 5.0 5.1 5.3 5.3
4.2 4.4 4.6 4.7 4.8 5.2 5.2 5.3 5.3 5.4 5.3 5.1 4.9 4.7 4.6 4.8 4.9 5.0 4.7 5.1 4.9 5.1
4.2 4.1 4.2 4.3 4.5 4.6 4.8 4.9 4.7 4.7 4.6 4.4 4.4 4.5 4.6 4.6 4.5 4.5 4.4 4.5 4.6 4.7
4.2 4.4 4.3 4.3 4.4 4.3 4.4 4.5 4.5 4.5 4.4 4.4 4.5 4.5 4.4 4.5 4.5 4.5 4.4 4.4 4.6 4.8
3.7 3.9 4.1 4.2 4.2 4.4 4.5 4.6 4.8 4.8 4.8 4.7 4.6 4.6 4.7 4.6 4.6 4.6 4.5 4.6 5.0 5.3
3.6 3.8 4.0 4.0 4.0 4.1 4.2 4.3 4.5 4.4 4.6 4.6 4.7 4.9 4.8 4.7 4.7 4.6 4.8 5.0 5.2 5.3
3.7 3.9 4.0 4.2 4.2 4.4 4.6 4.5 4.6 4.7 4.8 4.9 4.9 5.0 4.9 4.9 4.9 5.1 5.1 4.9 5.0 5.0
Wind_Speed
14 10 10 13 11 11 9 8 10 8 7 9 12 10 9 7 5 6 8 9 7 5
5 12 11 12 12 10 10 9 10 9 9 9 8 8 8 5 7 8 5 6 7 5
4 6 10 11 11 12 11 13 12 11 10 9 9 8 8 7 5 7 4 4 8 5
9 5 9 10 9 10 11 12 11 11 12 10 10 9 10 8 9 9 9 7 7 6
13 9 8 9 9 10 8 10 10 10 11 10 10 9 10 10 9 9 9 8 8 8
12 12 10 10 9 8 8 9 9 9 9 10 9 9 9 10 10 9 8 8 8 9
11 12 8 9 8 7 7 8 8 9 10 10 11 10 10 11 10 9 7 6 6 7
12 11 11 10 8 7 8 8 10 10 10 10 11 8 11 9 8 9 7 6 5 5
14 12 11 10 9 9 9 8 8 9 10 10 6 16 16 11 8 8 7 7 6 7
15 13 11 9 8 8 8 9 9 9 10 10 11 18 17 15 8 7 6 8 8 7
15 14 12 11 10 8 6 8 8 9 10 9 8 18 17 15 8 7 8 9 9 9
14 13 12 11 10 9 6 7 7 6 7 7 6 17 15 11 7 8 9 8 8 9
13 12 12 11 9 7 6 6 5 6 6 9 6 10 17 11 6 7 6 6 6 9
13 12 11 10 7 7 6 5 5 5 5 6 4 3 11 10 6 6 6 6 6 6
Wind_Direction
166 165 168 169 163 162 171 162 158 157 142 152 156 142 150 158 145 137 153 147 151 137
136 154 162 160 166 157 155 148 142 146 138 139 136 131 125 147 146 150 132 139 139 139
42 120 133 137 147 155 150 148 154 148 144 137 132 143 133 121 124 122 102 121 134 116
22 49 123 122 123 129 146 140 148 144 147 133 131 135 130 121 129 130 129 127 119 117
24 22 54 88 107 110 114 130 127 139 133 128 125 125 126 126 126 126 124 118 115 118
22 23 29 42 69 89 102 108 114 123 127 123 126 119 111 118 118 117 124 128 128 131
16 26 20 43 56 75 108 116 130 144 134 130 132 131 126 121 112 114 122 121 131 148
22 25 27 39 43 73 94 114 130 132 136 131 144 142 140 139 143 136 144 151 146 171
13 17 25 34 42 59 80 95 107 118 123 130 142 157 154 144 144 138 150 148 159 167
9 15 18 25 45 60 78 97 103 113 126 138 143 151 155 144 131 140 142 146 155 153
3 11 11 20 28 40 64 90 103 104 109 111 133 138 136 135 130 131 151 161 160 152
357 5 6 14 15 15 39 60 66 74 88 90 95 147 139 127 133 140 146 146 146 145
357 359 4 359 7 7 23 42 74 72 68 81 57 125 139 140 134 136 141 147 152 164
354 356 359 354 4 6 16 39 63 80 76 75 76 61 131 141 151 148 146 159 167 178